K1DRD Weather Reports


time (UTC)temp
F
wind
direction
speed
knots
gust
knots
rain 1hr
in
rain 24hr
in
rain mn
in
humidity
%
barometer
mb
20260507192507 61 270 2.6 7.8 0.00 0.18 0.10 31 1005.8
20260507192007 61 270 4.3 7.8 0.00 0.18 0.10 34 1005.8
20260507191504 61 309 4.3 7.0 0.00 0.18 0.10 33 1005.8
20260507191003 61 293 3.5 7.8 0.00 0.19 0.10 32 1005.9
20260507190503 61 264 4.3 7.8 0.00 0.19 0.10 31 1005.9
20260507190008 61 351 2.6 6.1 0.00 0.19 0.10 34 1005.9
20260507185503 61 274 4.3 7.0 0.00 0.19 0.10 32 1006.1
20260507185004 61 277 4.3 7.0 0.00 0.19 0.10 31 1006.0
20260507184512 61 291 2.6 7.0 0.00 0.19 0.10 32 1006.0
20260507184004 61 281 4.3 8.7 0.00 0.19 0.10 33 1006.0
20260507183503 61 286 4.3 8.7 0.00 0.19 0.10 31 1006.1
20260507183020 62 266 5.2 7.8 0.00 0.19 0.10 31 1006.2
20260507182508 62 278 2.6 6.1 0.00 0.19 0.10 34 1006.1
20260507182011 62 266 3.5 6.1 0.00 0.19 0.10 31 1006.1
20260507181522 61 287 2.6 6.1 0.00 0.19 0.10 32 1006.3
20260507181011 61 272 2.6 6.1 0.00 0.19 0.10 38 1006.2
20260507180508 61 258 3.5 6.1 0.00 0.19 0.10 32 1006.4
20260507180006 62 1 1.7 5.2 0.00 0.19 0.10 33 1006.4
20260507175503 62 266 3.5 5.2 0.00 0.19 0.10 35 1006.4
20260507175006 61 311 1.7 7.0 0.00 0.19 0.10 39 1006.4
20260507174511 61 297 2.6 7.8 0.00 0.19 0.10 37 1006.5
20260507174004 61 274 3.5 7.8 0.00 0.19 0.10 37 1006.4
20260507173506 61 300 2.6 6.1 0.00 0.19 0.10 36 1006.4
20260507173041 61 266 3.5 6.1 0.00 0.19 0.10 39 1006.3
20260507172506 61 266 1.7 7.0 0.00 0.19 0.10 40 1006.4
20260507172007 61 270 1.7 7.8 0.00 0.19 0.10 36 1006.3
20260507171526 60 275 4.3 7.8 0.00 0.19 0.10 38 1006.4
20260507171007 60 294 3.5 7.0 0.00 0.19 0.10 38 1006.4
20260507170510 60 279 1.7 7.0 0.00 0.19 0.10 38 1006.6
20260507170026 60 275 1.7 4.3 0.00 0.19 0.10 40 1006.7
20260507165507 60 312 2.6 5.2 0.00 0.19 0.10 39 1006.7
20260507165003 60 279 2.6 6.1 0.00 0.19 0.10 39 1006.9
20260507164527 60 271 3.5 7.0 0.00 0.19 0.10 45 1006.9
20260507164006 60 275 3.5 7.0 0.00 0.19 0.10 40 1006.9
20260507163505 60 338 2.6 7.0 0.00 0.19 0.10 43 1006.9
20260507163013 60 320 4.3 7.0 0.00 0.19 0.10 43 1007.0
20260507162505 60 280 2.6 7.0 0.00 0.19 0.10 42 1007.0
20260507162007 60 278 2.6 7.0 0.00 0.19 0.10 41 1007.0
20260507161523 60 290 4.3 6.1 0.00 0.19 0.10 45 1007.0
20260507161006 59 264 3.5 6.1 0.00 0.19 0.10 44 1007.0
20260507160506 59 268 2.6 7.0 0.00 0.19 0.10 47 1007.0
20260507160023 59 293 3.5 7.0 0.00 0.19 0.10 43 1007.2
20260507155508 59 298 3.5 7.0 0.00 0.19 0.10 47 1007.2
20260507155008 59 338 1.7 4.3 0.00 0.19 0.10 45 1007.2
20260507154528 59 271 2.6 4.3 0.00 0.19 0.10 50 1007.3
20260507154010 58 278 2.6 4.3 0.00 0.19 0.10 49 1007.2
20260507153502 59 5 1.7 4.3 0.00 0.19 0.10 49 1007.2
20260507153011 59 297 2.6 7.0 0.00 0.19 0.10 52 1007.3
20260507152508 58 284 2.6 7.0 0.00 0.19 0.10 51 1007.3
20260507152002 58 274 2.6 4.3 0.00 0.19 0.10 55 1007.4
20260507151514 57 266 1.7 5.2 0.00 0.19 0.10 57 1007.4
20260507151003 57 313 1.7 5.2 0.00 0.19 0.10 56 1007.4
20260507150507 58 305 1.7 3.5 0.00 0.19 0.10 55 1007.5
20260507150021 57 323 1.7 6.1 0.00 0.19 0.10 56 1007.6
20260507145509 57 290 3.5 6.1 0.00 0.19 0.10 59 1007.6
20260507145002 57 288 2.6 5.2 0.00 0.19 0.10 58 1007.7
20260507144505 57 267 3.5 5.2 0.00 0.19 0.10 61 1007.7
20260507144004 58 260 3.5 5.2 0.00 0.19 0.10 58 1007.8
20260507143503 58 291 0.9 4.3 0.00 0.19 0.10 59 1007.7
20260507143006 56 274 1.7 4.3 0.00 0.19 0.10 60 1007.8
20260507142503 56 293 1.7 4.3 0.00 0.19 0.10 60 1007.9
20260507142007 57 296 2.6 4.3 0.00 0.19 0.10 60 1007.9
20260507141505 57 249 2.6 4.3 0.00 0.19 0.10 60 1007.8
20260507141003 56 259 2.6 4.3 0.00 0.19 0.10 59 1007.9
20260507140502 57 305 1.7 2.6 0.00 0.19 0.10 60 1007.8
20260507140007 56 356 1.7 2.6 0.00 0.19 0.10 62 1007.9
20260507135503 56 286 0.9 2.6 0.00 0.19 0.10 64 1007.9
20260507135003 55 352 1.7 2.6 0.00 0.19 0.10 65 1007.9
20260507134508 55 298 1.7 3.5 0.00 0.19 0.10 64 1007.9
20260507134005 55 271 1.7 3.5 0.00 0.19 0.10 65 1007.8
20260507133504 55 294 0.9 2.6 0.00 0.19 0.10 66 1007.9
20260507133006 55 283 1.7 4.3 0.00 0.19 0.10 68 1007.8
20260507132503 55 282 1.7 4.3 0.00 0.19 0.10 68 1007.9
20260507132003 54 283 1.7 3.5 0.00 0.19 0.10 70 1008.0
20260507131508 54 350 0.9 3.5 0.00 0.19 0.10 73 1008.0
20260507131003 54 258 0.9 3.5 0.00 0.19 0.10 73 1008.1
20260507130505 53 308 1.7 2.6 0.00 0.19 0.10 75 1008.1
20260507130008 53 336 0.9 2.6 0.00 0.19 0.10 78 1008.1
20260507125504 53 311 0.9 2.6 0.00 0.19 0.10 77 1008.1
20260507125004 53 18 0.9 2.6 0.00 0.19 0.10 80 1008.1
20260507124510 52 290 0.9 2.6 0.00 0.19 0.10 80 1008.2
20260507124003 52 267 0.9 2.6 0.00 0.19 0.10 81 1008.3
20260507123503 51 1 0.9 2.6 0.00 0.19 0.10 81 1008.3
20260507123010 51 276 0.9 2.6 0.00 0.19 0.10 83 1008.4
20260507122503 51 347 0.9 2.6 0.00 0.19 0.10 84 1008.4
20260507122006 51 293 0.9 2.6 0.00 0.19 0.10 85 1008.4
20260507121511 50 276 0.9 2.6 0.00 0.19 0.10 85 1008.2
20260507121004 50 281 0.9 2.6 0.00 0.19 0.10 86 1008.2
20260507120505 50 260 1.7 2.6 0.00 0.19 0.10 86 1008.3
20260507120007 50 287 0.9 1.7 0.00 0.19 0.10 86 1008.1
20260507115503 50 283 0.0 1.7 0.00 0.19 0.10 87 1008.1
20260507115008 49 283 0.0 1.7 0.00 0.19 0.10 87 1008.1
20260507114511 49 283 0.0 1.7 0.00 0.19 0.10 87 1008.2
20260507114004 49 276 0.9 1.7 0.00 0.19 0.10 88 1008.2
20260507113504 49 295 0.0 1.7 0.00 0.19 0.10 89 1008.3
20260507113013 49 295 0.0 1.7 0.00 0.19 0.10 88 1008.1
20260507112508 49 297 0.9 0.9 0.00 0.19 0.10 89 1008.1
20260507112004 49 298 0.9 1.7 0.00 0.19 0.10 89 1008.0
20260507111507 49 282 0.9 1.7 0.00 0.19 0.10 89 1008.0
20260507111004 49 282 0.0 0.9 0.00 0.19 0.10 90 1008.0
20260507110508 48 282 0.0 1.7 0.01 0.19 0.10 90 1007.9
20260507110011 48 286 0.9 1.7 0.01 0.19 0.10 91 1007.8
20260507105505 48 276 0.9 1.7 0.01 0.19 0.10 92 1007.7
20260507105003 48 226 0.0 0.0 0.01 0.19 0.10 91 1007.6
20260507104511 48 226 0.0 0.0 0.01 0.19 0.10 91 1007.8
20260507104004 48 226 0.0 0.0 0.01 0.19 0.10 91 1007.9
20260507103502 48 226 0.0 0.0 0.02 0.19 0.10 91 1008.1
20260507103008 48 226 0.0 1.7 0.02 0.19 0.10 91 1008.0
20260507102503 48 232 0.0 1.7 0.03 0.19 0.10 91 1008.1
20260507102003 48 248 0.0 1.7 0.04 0.19 0.10 91 1007.9
20260507101509 48 248 0.0 0.0 0.04 0.19 0.10 91 1007.7
20260507101004 48 248 0.0 0.0 0.04 0.19 0.10 90 1007.5
20260507100506 48 248 0.0 0.0 0.04 0.18 0.09 90 1007.5
20260507100005 48 248 0.0 1.7 0.06 0.18 0.09 90 1007.5
20260507095504 48 248 0.0 1.7 0.07 0.18 0.09 89 1007.6
20260507095008 48 257 0.0 0.0 0.08 0.18 0.09 89 1007.3
20260507094513 48 267 0.0 1.7 0.08 0.18 0.09 89 1007.4
20260507094005 48 267 0.0 1.7 0.08 0.18 0.09 89 1007.3
20260507093505 48 276 0.0 1.7 0.08 0.17 0.08 88 1007.2
20260507093017 48 276 0.0 1.7 0.08 0.17 0.08 88 1007.2
20260507092504 48 295 0.9 1.7 0.07 0.16 0.07 88 1007.4
20260507092006 48 263 0.9 1.7 0.06 0.15 0.06 88 1007.2
20260507091524 48 280 0.9 1.7 0.06 0.15 0.06 87 1007.2
20260507091003 49 287 0.9 1.7 0.06 0.15 0.06 87 1007.4
20260507090503 49 285 0.9 2.6 0.05 0.14 0.05 86 1007.4
20260507090017 49 295 0.9 2.6 0.03 0.12 0.03 85 1007.6
20260507085503 49 269 1.7 2.6 0.02 0.11 0.02 85 1007.6
20260507085004 49 281 1.7 2.6 0.01 0.10 0.01 84 1007.6
20260507084509 50 284 1.7 1.7 0.01 0.10 0.01 85 1007.6
20260507084004 50 297 0.9 2.6 0.01 0.10 0.01 85 1007.6
20260507083505 49 286 0.9 2.6 0.00 0.09 0.00 84 1007.6
20260507083013 50 275 1.7 2.6 0.00 0.09 0.00 83 1007.4
20260507082503 50 293 1.7 2.6 0.00 0.09 0.00 83 1007.5
20260507082010 50 290 1.7 2.6 0.00 0.09 0.00 83 1007.5
20260507081522 50 288 1.7 2.6 0.00 0.09 0.00 82 1007.4
20260507081005 50 292 1.7 4.3 0.00 0.09 0.00 81 1007.2
20260507080506 51 292 0.9 4.3 0.00 0.09 0.00 81 1007.3
20260507080015 51 283 1.7 4.3 0.00 0.09 0.00 80 1007.5
20260507075503 51 293 1.7 3.5 0.00 0.09 0.00 81 1007.5
20260507075004 51 283 2.6 3.5 0.00 0.09 0.00 82 1007.3
20260507074514 52 282 2.6 3.5 0.00 0.09 0.00 81 1007.4
20260507074007 52 270 1.7 2.6 0.00 0.09 0.00 80 1007.2
20260507073506 52 286 1.7 3.5 0.00 0.09 0.00 80 1007.1
20260507073014 53 285 2.6 4.3 0.00 0.09 0.00 79 1007.3
20260507072504 53 291 2.6 4.3 0.00 0.09 0.00 78 1007.2
20260507072008 54 292 0.9 1.7 0.00 0.09 0.00 79 1006.9
20260507071517 54 316 0.9 2.6 0.00 0.09 0.00 79 1006.7
20260507071005 54 278 0.9 2.6 0.00 0.09 0.00 78 1006.5
20260507070506 54 295 0.9 3.5 0.00 0.09 0.00 79 1006.3
20260507070018 54 302 1.7 3.5 0.00 0.09 0.00 78 1006.4
20260507065506 54 284 0.9 2.6 0.00 0.09 0.00 80 1006.5
20260507065005 54 297 0.9 2.6 0.00 0.09 0.00 80 1006.4
20260507064517 54 310 0.9 2.6 0.00 0.09 0.00 80 1006.5
20260507064006 54 263 1.7 3.5 0.00 0.09 0.00 79 1006.4
20260507063508 55 298 0.9 3.5 0.00 0.09 0.00 79 1006.5
20260507063017 55 297 0.9 3.5 0.00 0.09 0.00 79 1006.8
20260507062507 55 301 0.9 4.3 0.00 0.09 0.00 78 1006.7
20260507062004 55 309 1.7 4.3 0.00 0.09 0.00 78 1006.6
20260507061515 55 309 2.6 4.3 0.00 0.09 0.00 79 1006.4
20260507061004 55 281 1.7 2.6 0.00 0.09 0.00 79 1006.4
20260507060503 55 296 0.9 2.6 0.00 0.09 0.00 80 1006.3
20260507060015 56 269 1.7 2.6 0.00 0.09 0.00 80 1006.3
20260507055508 56 285 0.9 3.5 0.00 0.09 0.00 81 1006.5
20260507055004 56 276 1.7 3.5 0.00 0.09 0.00 80 1006.7
20260507054511 56 271 1.7 3.5 0.00 0.09 0.00 80 1006.6
20260507054003 56 298 1.7 3.5 0.00 0.09 0.00 80 1006.7
20260507053503 56 280 1.7 4.3 0.00 0.09 0.00 80 1006.7
20260507053009 56 290 2.6 5.2 0.00 0.09 0.00 79 1007.1
20260507052502 57 288 3.5 5.2 0.00 0.09 0.00 79 1006.9
20260507052006 57 276 1.7 2.6 0.00 0.09 0.00 79 1006.8
20260507051512 57 277 1.7 2.6 0.00 0.09 0.00 80 1006.9
20260507051004 57 281 0.9 3.5 0.00 0.09 0.00 81 1006.7
20260507050503 57 304 1.7 3.5 0.00 0.09 0.00 82 1006.6
20260507050008 58 288 1.7 2.6 0.00 0.09 0.00 83 1006.6
20260507045504 58 10 0.9 3.5 0.00 0.09 0.00 85 1006.6
20260507045004 58 294 1.7 3.5 0.00 0.09 0.00 85 1006.6
20260507044527 58 287 1.7 2.6 0.00 0.09 0.00 85 1006.7
20260507044003 59 300 1.7 3.5 0.00 0.09 0.00 85 1006.7
20260507043503 59 295 2.6 3.5 0.00 0.09 0.00 85 1006.6
20260507043010 59 290 1.7 3.5 0.00 0.09 0.00 86 1006.6
20260507042503 59 287 1.7 4.3 0.00 0.09 0.00 86 1006.5
20260507042002 59 279 1.7 4.3 0.00 0.09 0.00 87 1006.5
20260507041510 59 266 1.7 4.3 0.00 0.09 0.00 88 1006.6
20260507041004 59 292 1.7 3.5 0.00 0.09 0.00 89 1006.5
20260507040503 60 286 0.9 1.7 0.00 0.09 0.00 90 1006.6
20260507040011 60 268 0.9 1.7 0.00 0.09 0.00 90 1006.7
20260507035504 60 285 0.9 1.7 0.00 0.09 0.09 90 1006.8
20260507035002 59 288 0.9 1.7 0.00 0.09 0.09 90 1006.8
20260507034514 59 296 0.9 1.7 0.00 0.09 0.09 90 1006.8
20260507034003 59 217 0.9 1.7 0.00 0.09 0.09 91 1006.7
20260507033503 59 253 0.9 2.6 0.00 0.09 0.09 91 1006.6
20260507033010 59 222 0.0 2.6 0.00 0.09 0.09 91 1006.4
20260507032504 59 295 0.0 1.7 0.00 0.09 0.09 91 1006.4
20260507032004 59 311 0.0 1.7 0.00 0.09 0.09 91 1006.4
20260507031515 59 262 0.0 1.7 0.00 0.09 0.09 91 1006.5
20260507031004 59 321 0.0 1.7 0.00 0.09 0.09 91 1006.3
20260507030506 59 265 0.0 1.7 0.00 0.09 0.09 91 1006.2
20260507030012 59 193 0.0 1.7 0.00 0.09 0.09 91 1006.1
20260507025503 59 8 0.0 2.6 0.00 0.09 0.09 91 1006.1
20260507025003 59 63 0.0 2.6 0.00 0.09 0.09 91 1006.2
20260507024515 59 248 0.0 1.7 0.00 0.09 0.09 91 1006.0
20260507024003 59 282 0.0 1.7 0.00 0.09 0.09 91 1005.8
20260507023504 59 186 0.0 1.7 0.00 0.09 0.09 91 1006.0
20260507023012 58 280 0.9 1.7 0.00 0.09 0.09 91 1006.1
20260507022504 58 306 0.0 2.6 0.00 0.09 0.09 91 1006.2
20260507022005 58 179 0.9 2.6 0.00 0.09 0.09 91 1006.0
20260507021519 58 265 0.9 2.6 0.00 0.09 0.09 91 1005.9
20260507021002 58 139 0.0 2.6 0.00 0.09 0.09 91 1005.9
20260507020508 58 212 0.9 1.7 0.00 0.09 0.09 92 1006.0
20260507020016 58 217 0.0 4.3 0.00 0.09 0.09 91 1006.1
20260507015503 58 229 0.9 4.3 0.00 0.09 0.09 91 1006.1
20260507015003 58 233 0.0 3.5 0.00 0.09 0.09 92 1006.1
20260507014515 58 343 0.0 3.5 0.00 0.09 0.09 91 1005.9
20260507014003 58 181 0.0 2.6 0.00 0.09 0.09 91 1005.9
20260507013504 58 199 0.0 3.5 0.00 0.09 0.09 91 1005.9
20260507013013 58 173 0.9 3.5 0.00 0.09 0.09 92 1006.1
20260507012503 58 163 0.0 1.7 0.00 0.09 0.09 91 1006.2
20260507012006 58 116 0.0 1.7 0.00 0.09 0.09 92 1006.2
20260507011515 58 196 0.0 1.7 0.00 0.09 0.09 91 1006.4
20260507011007 58 126 0.0 2.6 0.00 0.09 0.09 91 1006.4
20260507010507 58 186 0.9 2.6 0.01 0.09 0.09 91 1006.5
20260507010020 58 239 0.0 4.3 0.01 0.09 0.09 91 1006.4
20260507005503 58 227 0.9 4.3 0.01 0.09 0.09 91 1006.4
20260507005008 58 178 0.9 2.6 0.01 0.09 0.09 91 1006.5
20260507004512 58 128 0.0 4.3 0.01 0.09 0.09 91 1006.4
20260507004003 58 158 0.9 4.3 0.01 0.09 0.09 91 1006.5
20260507003508 58 313 0.9 3.5 0.01 0.09 0.09 91 1006.4
20260507003021 58 360 0.0 2.6 0.02 0.09 0.09 91 1006.3
20260507002505 58 56 0.0 2.6 0.02 0.09 0.09 91 1006.3
20260507002008 58 115 0.0 2.6 0.02 0.09 0.09 91 1006.2
20260507001522 58 226 0.0 7.0 0.03 0.09 0.09 91 1006.2
20260507001007 58 299 0.0 7.0 0.03 0.09 0.09 91 1006.1
20260507000507 58 139 0.9 3.5 0.03 0.08 0.08 91 1006.0
20260507000016 58 189 0.0 3.5 0.04 0.08 0.08 91 1006.0
20260506235508 58 218 0.0 3.5 0.04 0.08 0.08 91 1005.9
20260506235008 58 200 0.9 2.6 0.04 0.08 0.08 91 1006.0
20260506234521 58 180 0.9 3.5 0.04 0.08 0.08 91 1006.0
20260506234007 58 199 0.0 5.2 0.04 0.08 0.08 91 1005.9
20260506233507 58 302 0.9 5.2 0.04 0.08 0.08 91 1005.9
20260506233016 58 12 0.9 1.7 0.03 0.07 0.07 90 1006.0
20260506232504 58 40 0.0 1.7 0.03 0.07 0.07 90 1005.9
20260506232005 59 11 0.0 3.5 0.03 0.07 0.07 90 1005.9
20260506231518 59 247 0.9 3.5 0.02 0.06 0.06 90 1005.9
20260506231007 59 95 0.0 3.5 0.02 0.06 0.06 90 1005.9
20260506230506 59 283 0.9 5.2 0.01 0.05 0.05 90 1006.0
20260506230021 59 186 0.9 7.8 0.00 0.04 0.04 90 1005.9
20260506225507 59 117 0.0 7.8 0.00 0.04 0.04 90 1006.0
20260506225010 59 356 0.0 1.7 0.00 0.04 0.04 90 1005.9
20260506224521 59 353 0.9 3.5 0.00 0.04 0.04 90 1006.0
20260506224005 59 346 0.0 3.5 0.00 0.04 0.04 90 1006.0
20260506223506 59 238 0.0 2.6 0.01 0.04 0.04 90 1006.1
20260506223017 59 234 0.9 7.0 0.01 0.04 0.04 90 1006.1
20260506222506 59 216 1.7 7.0 0.01 0.04 0.04 90 1006.1
20260506222008 59 288 0.9 3.5 0.01 0.04 0.04 90 1006.1
20260506221519 59 264 0.9 3.5 0.01 0.04 0.04 90 1006.3
20260506221007 59 287 0.0 3.5 0.01 0.04 0.04 90 1006.3
20260506220507 59 193 0.9 3.5 0.01 0.04 0.04 90 1006.4
20260506220021 59 23 0.0 4.3 0.01 0.04 0.04 90 1006.4
20260506215504 59 125 0.9 4.3 0.01 0.04 0.04 90 1006.4
20260506215007 59 17 0.0 1.7 0.01 0.04 0.04 89 1006.4
20260506214523 60 229 0.0 2.6 0.01 0.04 0.04 89 1006.4
20260506214008 60 120 0.9 2.6 0.01 0.04 0.04 88 1006.4
20260506213504 60 84 0.0 2.6 0.00 0.03 0.03 88 1006.6
20260506213022 60 335 0.9 3.5 0.00 0.03 0.03 87 1006.6
20260506212508 60 232 1.7 3.5 0.00 0.03 0.03 86 1006.8
20260506212011 61 236 1.7 3.5 0.00 0.03 0.03 86 1006.7
20260506211523 61 174 0.0 2.6 0.00 0.03 0.03 86 1006.7
20260506211006 61 65 0.9 2.6 0.00 0.03 0.03 85 1006.7
20260506210507 61 333 0.9 2.6 0.00 0.03 0.03 85 1006.7
20260506210023 61 264 0.0 5.2 0.00 0.03 0.03 84 1006.7
20260506205511 61 209 0.9 5.2 0.00 0.03 0.03 84 1006.7
20260506205003 61 96 1.7 3.5 0.00 0.03 0.03 84 1006.8
20260506204504 61 359 0.9 6.1 0.01 0.03 0.03 84 1006.9
20260506204004 61 212 0.9 7.0 0.01 0.03 0.03 85 1006.8
20260506203503 61 294 1.7 9.6 0.01 0.03 0.03 84 1007.0
20260506203008 61 252 1.7 9.6 0.01 0.03 0.03 84 1007.0
20260506202504 61 146 0.9 9.6 0.02 0.03 0.03 83 1007.0
20260506202009 61 217 1.7 9.6 0.02 0.03 0.03 83 1007.1
20260506201511 61 1 1.7 9.6 0.02 0.03 0.03 83 1007.0
20260506201007 61 213 1.7 4.3 0.03 0.03 0.03 84 1006.9
20260506200508 61 338 0.9 4.3 0.03 0.03 0.03 84 1006.8
20260506200017 61 250 0.9 3.5 0.03 0.03 0.03 84 1006.8
20260506195507 61 221 0.9 3.5 0.03 0.03 0.03 84 1006.9
20260506195006 61 350 0.9 2.6 0.03 0.03 0.03 84 1006.8
20260506194524 61 288 1.7 2.6 0.02 0.02 0.02 83 1006.8
20260506194004 62 316 0.0 6.1 0.02 0.02 0.02 83 1006.9
20260506193503 62 300 1.7 6.1 0.02 0.02 0.02 82 1006.9
20260506193007 62 124 0.0 4.3 0.02 0.02 0.02 83 1007.2